This demonstration page uses our WeatherBlox Daily Observations layout. Learn more.

Left ArrowRight Arrow

Hourly Observations for April 24, 2021

Temp ( °F °C ) Dew Point ( °F °C ) Humidity (%) Winds ( mph kmh ) Pressure ( in mb ) Visibility ( mi km ) Precip ( " mm )
12:53 am 00:53 Mostly Cloudy 66 18.9 45 7.2 47 47 SSW 7 11 29.83 1010 10 16 0.00 0.00
1:53 am 01:53 Cloudy 62 16.7 41 5 46 46 NW 8 13 29.85 1011 10 16 0.00 0.00
2:53 am 02:53 Cloudy 60 15.6 42 5.6 52 52 Calm 29.85 1011 10 16 0.00 0.00
3:53 am 03:53 Cloudy 58 14.4 45 7.2 62 62 Calm 29.86 1011 10 16 0.00 0.00
4:53 am 04:53 Cloudy 57 13.9 45 7.2 64 64 S 10 17 29.87 1011 10 16 0.00 0.00
5:53 am 05:53 Cloudy 55 12.8 43 6.1 64 64 S 14 22 29.88 1012 10 16 0.00 0.00
6:53 am 06:53 Mostly Cloudy 54 12.2 42 5.6 64 64 SSW 12 19 29.89 1012 10 16 0.00 0.00
7:53 am 07:53 Cloudy 54 12.2 43 6.1 67 67 SSW 9 15 29.92 1013 10 16 0.00 0.00
8:53 am 08:53 Cloudy 56 13.3 43 6.1 62 62 S 12 19 29.91 1013 10 16 0.00 0.00
9:53 am 09:53 Mostly Cloudy 59 15 43 6.1 56 56 S 15 24 29.92 1013 10 16 0.00 0.00
10:53 am 10:53 Mostly Cloudy 59 15 43 6.1 56 56 S 16 26 29.92 1013 10 16 0.00 0.00
11:53 am 11:53 Sunny 63 17.2 41 5 45 45 SSE 17 28 29.91 1013 10 16 0.00 0.00
12:53 pm 12:53 Mostly Sunny 66 18.9 42 5.6 42 42 SSW 14 22 29.88 1012 10 16 0.00 0.00
1:53 pm 13:53 Mostly Cloudy 65 18.3 41 5 42 42 SSW 10 17 29.87 1012 10 16 0.00 0.00
2:53 pm 14:53 Cloudy with Light Rain 59 15 49 9.4 69 69 WSW 5 7 29.86 1011 10 16 0.02 0.51
3:53 pm 15:53 Cloudy 60 15.6 50 10 70 70 Calm 29.83 1010 10 16 0.03 0.76
4:53 pm 16:53 Cloudy 65 18.3 42 5.6 43 43 S 18 30 29.80 1009 10 16 0.00 0.00
5:53 pm 17:53 Cloudy 65 18.3 37 2.8 36 36 S 20 31 29.78 1008 10 16 0.00 0.00
6:53 pm 18:53 Mostly Sunny 63 17.2 39 3.9 41 41 SW 7 11 29.78 1009 10 16 0.00 0.00
7:53 pm 19:53 Cloudy 62 16.7 34 1.1 35 35 S 8 13 29.80 1009 10 16 0.00 0.00
8:53 pm 20:53 Mostly Clear 61 16.1 32 0 34 34 SW 10 17 29.80 1009 10 16 0.00 0.00
9:53 pm 21:53 Mostly Cloudy 59 15 34 1.1 39 39 S 6 9 29.80 1009 10 16 0.00 0.00
10:53 pm 22:53 Mostly Clear 57 13.9 36 2.2 45 45 S 7 11 29.81 1009 10 16 0.00 0.00
11:53 pm 23:53 Cloudy 58 14.4 39 3.9 50 50 S 10 17 29.82 1010 10 16 0.00 0.00

Powered by AerisWeather